Mount Pleasant, TN

3:28 AM CDT on August 24, 2016 (GMT -0500)
Maury County

Weather History for KMRC - March, 2014

Change the Weather History Date:

Sunday, March 9, 2014

  Actual Average (KBNA) Record (KBNA)
Temperature  
Mean Temperature 50 °F 48 °F  
Max Temperature 62 °F 59 °F 83 °F (1918)
Min Temperature 39 °F 37 °F 11 °F (1996)
Degree Days  
Heating Degree Days 14    
Month to date heating degree days  
Since 1 July heating degree days  
Cooling Degree Days 0    
Month to date cooling degree days  
Year to date cooling degree days  
Moisture  
Dew Point 42 °F    
Average Humidity 78    
Maximum Humidity 100    
Minimum Humidity 52    
Precipitation  
Precipitation 0.00 in 0.13 in 2.66 in (1922)
Month to date precipitation 1.17  
Year to date precipitation 8.86  
Sea Level Pressure  
Sea Level Pressure 30.18 in    
Wind  
Wind Speed 4 mph (NNW)    
Max Wind Speed 8 mph    
Max Gust Speed -    
Visibility 8 miles    
Events      
T = Trace of Precipitation, MM = Missing Value Source: NWS Daily Summary

Daily Weather History Graph

Daily Weather History Graph

Search for Another Location

Airport or City:

Trip Planner

Search our weather history database for the weather conditions in past years. The results will help you decide how hot, cold, wet, or windy it might be!

Date:

Astronomy

Mar. 09, 2014 Rise Set
Actual Time 7:07 AM CDT 6:51 PM CDT
Civil Twilight 6:42 AM CDT 7:16 PM CDT
Nautical Twilight 6:12 AM CDT 7:46 PM CDT
Astronomical Twilight 5:43 AM CDT 8:15 PM CDT
Moon 12:52 PM CDT (3/9) 3:24 AM CDT (3/9)
Length of Visible Light 12h 34m
Length of Day
11h 43m
First Quarter, 61% of the Moon is Illuminated
Mar 9
First Quarter
Mar 16
Full
Mar 23
Last Quarter
Mar 30
New
Apr 7
First Quarter

Hourly Weather History & Observations

Time (CDT) Temp. Windchill Dew Point Humidity Pressure Visibility Wind Dir Wind Speed Gust Speed Precip Events Conditions
12:35 AM 46.4 °F - 44.6 °F 93% 30.17 in 10.0 mi Calm Calm - N/A   Clear
12:55 AM 46.4 °F 45.2 °F 44.6 °F 93% 30.18 in 10.0 mi NW 3.5 mph - N/A   Partly Cloudy
1:15 AM 46.4 °F 43.5 °F 42.8 °F 87% 30.19 in 10.0 mi North 5.8 mph - N/A   Scattered Clouds
1:35 AM 44.6 °F 43.1 °F 42.8 °F 93% 30.19 in 10.0 mi North 3.5 mph - N/A   Mostly Cloudy
1:55 AM 44.6 °F 42.2 °F 42.8 °F 93% 30.18 in 8.0 mi North 4.6 mph - N/A   Partly Cloudy
3:15 AM 44.6 °F 40.2 °F 41.0 °F 87% 30.18 in 6.0 mi North 8.1 mph - N/A   Partly Cloudy
3:35 AM 42.8 °F 38.6 °F 41.0 °F 93% 30.19 in 5.0 mi NNW 6.9 mph - N/A   Mostly Cloudy
3:55 AM 42.8 °F 38.0 °F 41.0 °F 93% 30.19 in 5.0 mi North 8.1 mph - N/A   Overcast
4:15 AM 42.8 °F 39.3 °F 41.0 °F 93% 30.19 in 5.0 mi North 5.8 mph - N/A   Mostly Cloudy
4:35 AM 42.8 °F 39.3 °F 41.0 °F 93% 30.20 in 5.0 mi North 5.8 mph - N/A   Mostly Cloudy
4:55 AM 42.8 °F 39.3 °F 41.0 °F 93% 30.20 in 5.0 mi North 5.8 mph - N/A   Mostly Cloudy
5:15 AM 42.8 °F 39.3 °F 41.0 °F 93% 30.22 in 5.0 mi North 5.8 mph - N/A   Mostly Cloudy
5:35 AM 42.8 °F 41.1 °F 41.0 °F 93% 30.22 in 5.0 mi North 3.5 mph - N/A   Mostly Cloudy
5:55 AM 42.8 °F 38.6 °F 41.0 °F 93% 30.22 in 5.0 mi North 6.9 mph - N/A   Overcast
6:15 AM 42.8 °F 40.1 °F 39.2 °F 87% 30.22 in 5.0 mi North 4.6 mph - N/A   Overcast
6:35 AM 42.8 °F 39.3 °F 39.2 °F 87% 30.23 in 5.0 mi Variable 5.8 mph - N/A   Overcast
6:55 AM 41.0 °F 37.1 °F 39.2 °F 93% 30.23 in 5.0 mi North 5.8 mph - N/A   Overcast
7:15 AM 41.0 °F 38.0 °F 39.2 °F 93% 30.24 in 5.0 mi North 4.6 mph - N/A   Overcast
7:35 AM 39.2 °F 35.9 °F 39.2 °F 100% 30.25 in 5.0 mi North 4.6 mph - N/A   Mostly Cloudy
7:55 AM 41.0 °F 37.1 °F 39.2 °F 93% 30.25 in 3.0 mi North 5.8 mph - N/A   Overcast
8:15 AM 41.0 °F 37.1 °F 39.2 °F 93% 30.25 in 3.0 mi North 5.8 mph - N/A   Overcast
8:35 AM 41.0 °F 38.0 °F 39.2 °F 93% 30.25 in 3.0 mi NNW 4.6 mph - N/A   Overcast
8:55 AM 41.0 °F 37.1 °F 39.2 °F 93% 30.26 in 4.0 mi NNW 5.8 mph - N/A   Overcast
9:15 AM 41.0 °F 38.0 °F 39.2 °F 93% 30.27 in 4.0 mi North 4.6 mph - N/A   Overcast
9:35 AM 42.8 °F 39.3 °F 39.2 °F 87% 30.27 in 4.0 mi North 5.8 mph - N/A   Overcast
9:55 AM 42.8 °F - 39.2 °F 87% 30.27 in 4.0 mi Calm Calm - N/A   Overcast
10:15 AM 42.8 °F - 39.2 °F 87% 30.27 in 4.0 mi Calm Calm - N/A   Overcast
10:35 AM 42.8 °F 40.1 °F 39.2 °F 87% 30.26 in 4.0 mi NE 4.6 mph - N/A   Mostly Cloudy
10:55 AM 44.6 °F 43.1 °F 39.2 °F 81% 30.26 in 5.0 mi NE 3.5 mph - N/A   Partly Cloudy
11:15 AM 46.4 °F - 41.0 °F 81% 30.26 in 8.0 mi Calm Calm - N/A   Clear
11:35 AM 48.2 °F - 42.8 °F 82% 30.25 in 6.0 mi Variable 3.5 mph - N/A   Clear
11:55 AM 50.0 °F - 42.8 °F 76% 30.25 in 6.0 mi Variable 3.5 mph - N/A   Clear
12:15 PM 51.8 °F - 42.8 °F 71% 30.25 in 7.0 mi Calm Calm - N/A   Clear
12:35 PM 51.8 °F - 42.8 °F 71% 30.24 in 8.0 mi Calm Calm - N/A   Clear
12:55 PM 51.8 °F - 42.8 °F 71% 30.24 in 9.0 mi Calm Calm - N/A   Clear
1:15 PM 53.6 °F - 42.8 °F 67% 30.23 in 10.0 mi Variable 3.5 mph - N/A   Clear
1:35 PM 55.4 °F - 44.6 °F 67% 30.22 in 10.0 mi Variable 3.5 mph - N/A   Clear
1:55 PM 55.4 °F - 44.6 °F 67% 30.20 in 10.0 mi NE 4.6 mph - N/A   Clear
2:15 PM 55.4 °F - 44.6 °F 67% 30.19 in 10.0 mi NNW 4.6 mph - N/A   Clear
2:35 PM 57.2 °F - 44.6 °F 63% 30.17 in 10.0 mi East 4.6 mph - N/A   Clear
2:55 PM 57.2 °F - 44.6 °F 63% 30.17 in 10.0 mi WSW 3.5 mph - N/A   Clear
3:15 PM 59.0 °F - 44.6 °F 59% 30.16 in 10.0 mi Variable 4.6 mph - N/A   Clear
3:35 PM 59.0 °F - 44.6 °F 59% 30.16 in 10.0 mi Variable 3.5 mph - N/A   Clear
3:55 PM 60.8 °F - 44.6 °F 55% 30.15 in 10.0 mi Calm Calm - N/A   Clear
4:15 PM 60.8 °F - 44.6 °F 55% 30.15 in 10.0 mi Calm Calm - N/A   Clear
4:35 PM 60.8 °F - 44.6 °F 55% 30.14 in 10.0 mi Calm Calm - N/A   Clear
4:55 PM 60.8 °F - 44.6 °F 55% 30.13 in 10.0 mi Calm Calm - N/A   Clear
5:15 PM 62.6 °F - 44.6 °F 52% 30.13 in 10.0 mi ESE 4.6 mph - N/A   Clear
5:35 PM 60.8 °F - 44.6 °F 55% 30.13 in 10.0 mi NE 4.6 mph - N/A   Clear
5:55 PM 60.8 °F - 44.6 °F 55% 30.12 in 10.0 mi Calm Calm - N/A   Clear
6:15 PM 60.8 °F - 42.8 °F 52% 30.12 in 10.0 mi Calm Calm - N/A   Clear
6:35 PM 59.0 °F - 42.8 °F 55% 30.12 in 10.0 mi Calm Calm - N/A   Clear
6:55 PM 57.2 °F - 42.8 °F 59% 30.12 in 10.0 mi Calm Calm - N/A   Clear
7:15 PM 55.4 °F - 42.8 °F 63% 30.12 in 10.0 mi Calm Calm - N/A   Clear
7:35 PM 53.6 °F - 42.8 °F 67% 30.12 in 10.0 mi Calm Calm - N/A   Clear
7:55 PM 50.0 °F - 42.8 °F 76% 30.12 in 10.0 mi SW 4.6 mph - N/A   Clear
8:15 PM 51.8 °F - 42.8 °F 71% 30.11 in 10.0 mi SW 3.5 mph - N/A   Clear
8:35 PM 51.8 °F - 42.8 °F 71% 30.11 in 10.0 mi SW 4.6 mph - N/A   Clear
8:55 PM 50.0 °F - 42.8 °F 76% 30.12 in 10.0 mi Calm Calm - N/A   Clear
9:15 PM 51.8 °F - 42.8 °F 71% 30.13 in 10.0 mi Calm Calm - N/A   Clear
9:35 PM 50.0 °F - 42.8 °F 76% 30.13 in 10.0 mi SW 3.5 mph - N/A   Clear
9:55 PM 48.2 °F - 42.8 °F 82% 30.13 in 10.0 mi SW 3.5 mph - N/A   Clear
10:15 PM 46.4 °F 44.3 °F 41.0 °F 81% 30.13 in 10.0 mi SW 4.6 mph - N/A   Clear
10:35 PM 46.4 °F 43.5 °F 42.8 °F 87% 30.13 in 10.0 mi SSW 5.8 mph - N/A   Clear
10:55 PM 48.2 °F - 42.8 °F 82% 30.13 in 10.0 mi SW 4.6 mph - N/A   Clear
11:15 PM 46.4 °F 43.5 °F 42.8 °F 87% 30.13 in 10.0 mi SW 5.8 mph - N/A   Clear
11:35 PM 46.4 °F 45.2 °F 41.0 °F 81% 30.13 in 10.0 mi SW 3.5 mph - N/A   Clear
11:55 PM 46.4 °F 45.2 °F 41.0 °F 81% 30.13 in 10.0 mi SW 3.5 mph - N/A   Clear
12:15 AM 44.6 °F 41.4 °F 39.2 °F 81% 30.12 in 10.0 mi SW 5.8 mph - N/A   Clear
12:35 AM 44.6 °F - 41.0 °F 87% 30.12 in 10.0 mi Calm Calm - N/A   Clear
12:55 AM 44.6 °F 43.1 °F 41.0 °F 87% 30.12 in 9.0 mi WSW 3.5 mph - N/A   Clear